When you browse on this site, cookies collect data to enhance your experience and personalize the content and advertising you see.
Visit our Privacy Policy to learn more. By continuing to use the site, you agree to this use of cookies and data.
  • In Österreich
  • Länderverzeichnis
  • Für 7 Tage
  • Wassertemperatur
  • Satellitenkarten
  • Wetterkarte
  • News
  • Widgets
  • user-avatar
    Anmelden

    Stündliche Wetter Kaprun

    Heute, 17 Juli, Mittwoch

    Zeit Temperatur Niederschläge Wind Luftdruck Luftfeuchtigkeit
    00:00 +6°C° 0 mm 1 m/S 597 mmHg 95%
    01:00 +6°C° 0 mm 1 m/S 597 mmHg 95%
    02:00 +5°C° 0 mm 1 m/S 596 mmHg 95%
    03:00 +5°C° 0 mm 1 m/S 596 mmHg 94%
    04:00 +5°C° 0 mm 1 m/S 596 mmHg 94%
    05:00 +7°C° 0 mm 1 m/S 597 mmHg 87%
    06:00 +9°C° 0 mm 1 m/S 598 mmHg 80%
    07:00 +10°C° 0 mm 0 m/S 599 mmHg 73%
    08:00 +13°C° 0 mm 1 m/S 599 mmHg 63%
    09:00 +14°C° 0 mm 1 m/S 600 mmHg 54%
    10:00 +16°C° 0 mm 1 m/S 600 mmHg 45%
    11:00 +16°C° 0 mm 1 m/S 600 mmHg 45%
    12:00 +18°C° 0 mm 1 m/S 600 mmHg 44%
    13:00 +18°C° 0 mm 2 m/S 600 mmHg 43%
    14:00 +17°C° 0.9 mm 2 m/S 600 mmHg 54%
    15:00 +16°C° 0.9 mm 1 m/S 599 mmHg 65%
    16:00 +14°C° 0.9 mm 1 m/S 599 mmHg 75%
    17:00 +13°C° 1.3 mm 1 m/S 598 mmHg 81%
    18:00 +12°C° 1.3 mm 1 m/S 597 mmHg 86%
    19:00 +11°C° 1.3 mm 1 m/S 597 mmHg 92%
    20:00 +10°C° 0.6 mm 1 m/S 597 mmHg 92%
    21:00 +9°C° 0.6 mm 1 m/S 596 mmHg 92%
    22:00 +7°C° 0.6 mm 1 m/S 596 mmHg 92%
    23:00 +7°C° 0 mm 1 m/S 596 mmHg 93%

    Morgen, 18 Juli, Donnerstag

    Zeit Temperatur Niederschläge Wind Luftdruck Luftfeuchtigkeit
    00:00 +6°C° 0 mm 1 m/S 595 mmHg 93%
    01:00 +6°C° 0 mm 1 m/S 595 mmHg 93%
    02:00 +5°C° 0 mm 1 m/S 595 mmHg 93%
    03:00 +5°C° 0 mm 1 m/S 595 mmHg 92%
    04:00 +5°C° 0 mm 1 m/S 595 mmHg 92%
    05:00 +7°C° 0 mm 1 m/S 595 mmHg 87%
    06:00 +8°C° 0 mm 1 m/S 596 mmHg 83%
    07:00 +9°C° 0 mm 0 m/S 597 mmHg 78%
    08:00 +12°C° 0 mm 1 m/S 598 mmHg 70%
    09:00 +13°C° 0 mm 1 m/S 598 mmHg 62%
    10:00 +15°C° 0 mm 1 m/S 599 mmHg 54%
    11:00 +15°C° 0.2 mm 1 m/S 599 mmHg 54%
    12:00 +15°C° 0.2 mm 2 m/S 599 mmHg 54%
    13:00 +16°C° 0.2 mm 2 m/S 599 mmHg 54%
    14:00 +15°C° 0.7 mm 2 m/S 599 mmHg 59%
    15:00 +14°C° 0.7 mm 2 m/S 599 mmHg 64%
    16:00 +14°C° 0.7 mm 1 m/S 599 mmHg 69%
    17:00 +13°C° 0.8 mm 1 m/S 598 mmHg 75%
    18:00 +12°C° 0.8 mm 1 m/S 598 mmHg 82%
    19:00 +10°C° 0.8 mm 0 m/S 598 mmHg 89%
    20:00 +9°C° 0.2 mm 0 m/S 597 mmHg 90%
    21:00 +8°C° 0.2 mm 1 m/S 597 mmHg 91%
    22:00 +7°C° 0.2 mm 1 m/S 597 mmHg 92%
    23:00 +7°C° 0 mm 1 m/S 597 mmHg 92%

    übermorgen, 19 Juli, Freitag

    Zeit Temperatur Niederschläge Wind Luftdruck Luftfeuchtigkeit
    00:00 +6°C° 0 mm 1 m/S 597 mmHg 92%
    01:00 +6°C° 0 mm 1 m/S 597 mmHg 92%
    02:00 +6°C° 0 mm 1 m/S 597 mmHg 92%
    03:00 +6°C° 0 mm 1 m/S 597 mmHg 91%
    04:00 +6°C° 0 mm 1 m/S 597 mmHg 91%
    05:00 +8°C° 0 mm 1 m/S 598 mmHg 88%
    06:00 +9°C° 0 mm 1 m/S 598 mmHg 85%
    07:00 +10°C° 0 mm 0 m/S 599 mmHg 81%
    08:00 +12°C° 0.1 mm 1 m/S 600 mmHg 73%
    09:00 +14°C° 0.1 mm 1 m/S 601 mmHg 65%
    10:00 +16°C° 0.1 mm 1 m/S 601 mmHg 56%
    11:00 +16°C° 0.4 mm 1 m/S 601 mmHg 57%
    12:00 +16°C° 0.4 mm 1 m/S 601 mmHg 57%
    13:00 +18°C° 0.4 mm 1 m/S 601 mmHg 57%
    14:00 +16°C° 0.8 mm 1 m/S 601 mmHg 65%
    15:00 +15°C° 0.8 mm 1 m/S 601 mmHg 72%
    16:00 +15°C° 0.8 mm 1 m/S 600 mmHg 80%
    17:00 +14°C° 0.8 mm 1 m/S 600 mmHg 85%
    18:00 +13°C° 0.8 mm 1 m/S 600 mmHg 89%
    19:00 +11°C° 0.8 mm 0 m/S 600 mmHg 94%
    20:00 +9°C° 0.2 mm 0 m/S 599 mmHg 94%
    21:00 +8°C° 0.2 mm 0 m/S 599 mmHg 94%
    22:00 +7°C° 0.2 mm 0 m/S 598 mmHg 95%
    23:00 +7°C° 0 mm 1 m/S 598 mmHg 94%

    20 Juli, Samstag

    Zeit Temperatur Niederschläge Wind Luftdruck Luftfeuchtigkeit
    00:00 +7°C° 0 mm 1 m/S 598 mmHg 94%
    01:00 +7°C° 0 mm 1 m/S 598 mmHg 93%
    02:00 +7°C° 0 mm 1 m/S 598 mmHg 93%
    03:00 +7°C° 0 mm 1 m/S 598 mmHg 92%
    04:00 +7°C° 0 mm 1 m/S 598 mmHg 92%
    05:00 +9°C° 0 mm 1 m/S 599 mmHg 89%
    06:00 +11°C° 0 mm 1 m/S 600 mmHg 86%
    07:00 +13°C° 0 mm 1 m/S 601 mmHg 83%
    08:00 +15°C° 0 mm 1 m/S 601 mmHg 74%
    09:00 +16°C° 0 mm 1 m/S 602 mmHg 65%
    10:00 +19°C° 0 mm 1 m/S 603 mmHg 56%
    11:00 +19°C° 0.7 mm 1 m/S 603 mmHg 61%
    12:00 +19°C° 0.7 mm 1 m/S 603 mmHg 65%
    13:00 +19°C° 0.7 mm 1 m/S 602 mmHg 69%
    14:00 +19°C° 1.2 mm 1 m/S 602 mmHg 71%
    15:00 +18°C° 1.2 mm 1 m/S 602 mmHg 73%
    16:00 +18°C° 1.2 mm 1 m/S 602 mmHg 76%
    17:00 +16°C° 1.5 mm 1 m/S 602 mmHg 82%
    18:00 +14°C° 1.5 mm 1 m/S 601 mmHg 87%
    19:00 +13°C° 1.5 mm 1 m/S 601 mmHg 93%
    20:00 +12°C° 2.8 mm 1 m/S 601 mmHg 94%
    21:00 +9°C° 2.8 mm 2 m/S 601 mmHg 95%
    22:00 +8°C° 2.8 mm 3 m/S 601 mmHg 96%
    23:00 +7°C° 1.2 mm 2 m/S 600 mmHg 94%

    21 Juli, Sonntag

    Zeit Temperatur Niederschläge Wind Luftdruck Luftfeuchtigkeit
    00:00 +7°C° 1.2 mm 2 m/S 600 mmHg 91%
    01:00 +7°C° 1.2 mm 1 m/S 600 mmHg 89%
    02:00 +8°C° 0 mm 1 m/S 600 mmHg 86%
    03:00 +8°C° 0 mm 1 m/S 600 mmHg 84%
    04:00 +8°C° 0 mm 1 m/S 600 mmHg 81%
    05:00 +10°C° 0 mm 1 m/S 601 mmHg 78%
    06:00 +12°C° 0 mm 1 m/S 602 mmHg 74%
    07:00 +13°C° 0 mm 0 m/S 603 mmHg 71%
    08:00 +14°C° 0 mm 0 m/S 604 mmHg 65%
    09:00 +18°C° 0 mm 1 m/S 605 mmHg 59%
    10:00 +19°C° 0 mm 1 m/S 605 mmHg 52%
    11:00 +19°C° 0.2 mm 1 m/S 605 mmHg 55%
    12:00 +19°C° 0.2 mm 1 m/S 605 mmHg 57%
    13:00 +19°C° 0.2 mm 1 m/S 605 mmHg 59%
    14:00 +18°C° 0.6 mm 1 m/S 605 mmHg 63%
    15:00 +17°C° 0.6 mm 2 m/S 605 mmHg 68%
    16:00 +17°C° 0.6 mm 2 m/S 604 mmHg 72%
    17:00 +16°C° 0.6 mm 1 m/S 604 mmHg 79%
    18:00 +15°C° 0.6 mm 1 m/S 604 mmHg 85%
    19:00 +14°C° 0.6 mm 1 m/S 604 mmHg 92%
    20:00 +12°C° 0.2 mm 1 m/S 603 mmHg 93%
    21:00 +11°C° 0.2 mm 1 m/S 603 mmHg 93%
    22:00 +10°C° 0.2 mm 1 m/S 603 mmHg 94%
    23:00 +10°C° 0.1 mm 1 m/S 603 mmHg 93%

    22 Juli, Montag

    Zeit Temperatur Niederschläge Wind Luftdruck Luftfeuchtigkeit
    00:00 +9°C° 0.1 mm 1 m/S 602 mmHg 92%
    01:00 +9°C° 0.1 mm 1 m/S 602 mmHg 91%
    02:00 +9°C° 0 mm 1 m/S 602 mmHg 91%
    03:00 +8°C° 0 mm 1 m/S 601 mmHg 91%
    04:00 +8°C° 0 mm 1 m/S 601 mmHg 91%
    05:00 +9°C° 0 mm 0 m/S 602 mmHg 88%
    06:00 +10°C° 0 mm 0 m/S 603 mmHg 85%
    07:00 +12°C° 0 mm 0 m/S 604 mmHg 82%
    08:00 +14°C° 0.1 mm 0 m/S 604 mmHg 74%
    09:00 +16°C° 0.1 mm 1 m/S 605 mmHg 66%
    10:00 +19°C° 0.1 mm 1 m/S 606 mmHg 58%
    11:00 +18°C° 0.2 mm 2 m/S 605 mmHg 57%
    12:00 +19°C° 0.2 mm 2 m/S 605 mmHg 55%
    13:00 +19°C° 0.2 mm 2 m/S 605 mmHg 53%
    14:00 +19°C° 0.2 mm 2 m/S 605 mmHg 55%
    15:00 +19°C° 0.2 mm 2 m/S 605 mmHg 56%
    16:00 +19°C° 0.2 mm 2 m/S 605 mmHg 58%
    17:00 +17°C° 0.2 mm 2 m/S 604 mmHg 68%
    18:00 +16°C° 0.2 mm 1 m/S 603 mmHg 77%
    19:00 +15°C° 0.2 mm 1 m/S 603 mmHg 87%
    20:00 +13°C° 0.1 mm 1 m/S 602 mmHg 89%
    21:00 +11°C° 0.1 mm 1 m/S 602 mmHg 91%
    22:00 +10°C° 0.1 mm 1 m/S 601 mmHg 92%
    23:00 +9°C° 0 mm 1 m/S 601 mmHg 92%
    Mehr zeigen